User: anonymous   Login
Location: Marne
(34.0056°N, 117.9064°W)
Time: 12:49:14
(UTC+00:00)
Language:

Nadezhda 3 Rocket - Orbit

View from above orbital plane
View from above orbital plane
View from above satellite
View from above satellite

Ground track
Ground track

The orbit data is extracted from the following two-line orbital elements,

1 21153U 91019B   20098.73742867  .00000086  00000-0  72982-4 0  9991
2 21153  82.9264 159.5810 0029743 162.1273 317.3069 13.75946831459690
Epoch (UTC): 07 April 2020 17:41:53
Eccentricity: 0.0029743
inclination: 82.9264°
perigee height: 956 km
apogee height: 1000 km
right ascension of ascending node: 159.5810°
argument of perigee: 162.1273°
revolutions per day: 13.75946831
mean anomaly at epoch: 317.3069°
orbit number at epoch: 45969

The dashed part of the orbit path shows where the satellite is in the earth's shadow,  

DLR